| time (UTC) | temp C | wind direction | speed KPH | gust KPH | rain 1hr cm | rain 24hr cm | rain mn cm | humidity % | barometer mb |
| 20260504231826 | 23 | 136 | 4.8 | 6.4 | 0.00 | 0.00 | 0.00 | 37 | 1010.5 |
| 20260504231323 | 23 | 214 | 3.2 | 9.7 | 0.00 | 0.00 | 0.00 | 37 | 1010.4 |
| 20260504230819 | 23 | 177 | 1.6 | 9.7 | 0.00 | 0.00 | 0.00 | 37 | 1010.4 |
| 20260504230317 | 23 | 173 | 4.8 | 6.4 | 0.00 | 0.00 | 0.00 | 37 | 1010.5 |
| 20260504225816 | 24 | 231 | 4.8 | 11.3 | 0.00 | 0.00 | 0.00 | 36 | 1010.4 |
| 20260504225312 | 24 | 213 | 1.6 | 4.8 | 0.00 | 0.00 | 0.00 | 36 | 1010.4 |
| 20260504224809 | 24 | 200 | 1.6 | 9.7 | 0.00 | 0.00 | 0.00 | 35 | 1010.4 |
| 20260504224306 | 24 | 220 | 0.0 | 11.3 | 0.00 | 0.00 | 0.00 | 36 | 1010.5 |
| 20260504223802 | 24 | 256 | 4.8 | 6.4 | 0.00 | 0.00 | 0.00 | 36 | 1010.4 |
| 20260504223258 | 24 | 209 | 3.2 | 9.7 | 0.00 | 0.00 | 0.00 | 36 | 1010.4 |
| 20260504222755 | 24 | 180 | 4.8 | 6.4 | 0.00 | 0.00 | 0.00 | 36 | 1010.5 |
| 20260504222252 | 24 | 207 | 1.6 | 6.4 | 0.00 | 0.00 | 0.00 | 34 | 1010.5 |
| 20260504221750 | 25 | 205 | 3.2 | 6.4 | 0.00 | 0.00 | 0.00 | 34 | 1010.4 |
| 20260504221247 | 25 | 212 | 4.8 | 6.4 | 0.00 | 0.00 | 0.00 | 34 | 1010.3 |
| 20260504220743 | 25 | 213 | 3.2 | 16.1 | 0.00 | 0.00 | 0.00 | 33 | 1010.3 |
| 20260504220240 | 24 | 229 | 1.6 | 14.5 | 0.00 | 0.00 | 0.00 | 34 | 1010.3 |
| 20260504215738 | 25 | 228 | 6.4 | 20.9 | 0.00 | 0.00 | 0.00 | 34 | 1010.3 |
| 20260504215234 | 24 | 167 | 4.8 | 6.4 | 0.00 | 0.00 | 0.00 | 35 | 1010.2 |
| 20260504214730 | 24 | 159 | 3.2 | 17.7 | 0.00 | 0.00 | 0.00 | 35 | 1010.3 |
| 20260504214227 | 25 | 190 | 3.2 | 6.4 | 0.00 | 0.00 | 0.00 | 33 | 1010.3 |
| 20260504213723 | 25 | 238 | 3.2 | 16.1 | 0.00 | 0.00 | 0.00 | 33 | 1010.4 |
| 20260504213220 | 26 | 165 | 12.9 | 16.1 | 0.00 | 0.00 | 0.00 | 31 | 1010.4 |
| 20260504212717 | 26 | 190 | 1.6 | 4.8 | 0.00 | 0.00 | 0.00 | 32 | 1010.5 |
| 20260504212214 | 25 | 211 | 3.2 | 9.7 | 0.00 | 0.00 | 0.00 | 33 | 1010.4 |
| 20260504211711 | 25 | 244 | 1.6 | 4.8 | 0.00 | 0.00 | 0.00 | 35 | 1010.5 |
| 20260504211207 | 25 | 172 | 3.2 | 6.4 | 0.00 | 0.00 | 0.00 | 33 | 1010.5 |
| 20260504210705 | 25 | 183 | 4.8 | 17.7 | 0.00 | 0.00 | 0.00 | 32 | 1010.4 |
| 20260504210201 | 25 | 239 | 6.4 | 14.5 | 0.00 | 0.00 | 0.00 | 34 | 1010.3 |
| 20260504205658 | 25 | 213 | 3.2 | 4.8 | 0.00 | 0.00 | 0.00 | 31 | 1010.4 |
| 20260504205155 | 25 | 182 | 0.0 | 11.3 | 0.00 | 0.00 | 0.00 | 32 | 1010.4 |
| 20260504204654 | 25 | 211 | 3.2 | 4.8 | 0.00 | 0.00 | 0.00 | 33 | 1010.2 |
| 20260504204153 | 26 | 161 | 11.3 | 14.5 | 0.00 | 0.00 | 0.00 | 30 | 1010.5 |
| 20260504203651 | 25 | 232 | 1.6 | 6.4 | 0.00 | 0.00 | 0.00 | 32 | 1010.5 |
| 20260504203148 | 25 | 237 | 3.2 | 9.7 | 0.00 | 0.00 | 0.00 | 31 | 1010.6 |
| 20260504202643 | 25 | 246 | 3.2 | 16.1 | 0.00 | 0.00 | 0.00 | 31 | 1010.7 |
| 20260504202140 | 25 | 185 | 3.2 | 6.4 | 0.00 | 0.00 | 0.00 | 30 | 1010.6 |
| 20260504201637 | 25 | 199 | 0.0 | 6.4 | 0.00 | 0.00 | 0.00 | 31 | 1010.6 |
| 20260504201135 | 26 | 180 | 1.6 | 3.2 | 0.00 | 0.00 | 0.00 | 33 | 1010.9 |
| 20260504200632 | 26 | 253 | 4.8 | 6.4 | 0.00 | 0.00 | 0.00 | 32 | 1010.9 |
| 20260504200128 | 25 | 195 | 3.2 | 4.8 | 0.00 | 0.00 | 0.00 | 32 | 1011.1 |
| 20260504195624 | 25 | 233 | 1.6 | 12.9 | 0.00 | 0.00 | 0.00 | 33 | 1011.1 |
| 20260504195120 | 25 | 265 | 1.6 | 4.8 | 0.00 | 0.00 | 0.00 | 34 | 1011.1 |
| 20260504194617 | 26 | 234 | 3.2 | 16.1 | 0.00 | 0.00 | 0.00 | 31 | 1010.9 |
| 20260504194113 | 26 | 182 | 3.2 | 6.4 | 0.00 | 0.00 | 0.00 | 31 | 1011.1 |
| 20260504193609 | 26 | 127 | 1.6 | 6.4 | 0.00 | 0.00 | 0.00 | 32 | 1011.2 |
| 20260504193108 | 25 | 158 | 6.4 | 9.7 | 0.00 | 0.00 | 0.00 | 30 | 1011.2 |
| 20260504192606 | 25 | 229 | 3.2 | 4.8 | 0.00 | 0.00 | 0.00 | 32 | 1011.4 |
| 20260504192104 | 26 | 221 | 4.8 | 12.9 | 0.00 | 0.00 | 0.00 | 31 | 1011.5 |
| 20260504191602 | 26 | 270 | 0.0 | 4.8 | 0.00 | 0.00 | 0.00 | 34 | 1011.7 |
| 20260504191057 | 26 | 230 | 3.2 | 6.4 | 0.00 | 0.00 | 0.00 | 30 | 1011.5 |
| 20260504190554 | 26 | 236 | 1.6 | 3.2 | 0.00 | 0.00 | 0.00 | 30 | 1011.8 |
| 20260504190050 | 25 | 236 | 0.0 | 4.8 | 0.00 | 0.00 | 0.00 | 33 | 1011.9 |
| 20260504185547 | 26 | 217 | 3.2 | 12.9 | 0.00 | 0.00 | 0.00 | 31 | 1012.0 |
| 20260504185044 | 25 | 329 | 1.6 | 6.4 | 0.00 | 0.00 | 0.00 | 31 | 1012.0 |
| 20260504184539 | 25 | 197 | 1.6 | 4.8 | 0.00 | 0.00 | 0.00 | 32 | 1012.0 |
| 20260504184035 | 25 | 267 | 3.2 | 9.7 | 0.00 | 0.00 | 0.00 | 32 | 1012.2 |
| 20260504183532 | 26 | 283 | 9.7 | 17.7 | 0.00 | 0.00 | 0.00 | 32 | 1012.2 |
| 20260504183030 | 25 | 327 | 4.8 | 6.4 | 0.00 | 0.00 | 0.00 | 33 | 1012.2 |
| 20260504182527 | 26 | 194 | 8.0 | 11.3 | 0.00 | 0.00 | 0.00 | 33 | 1012.4 |
| 20260504182024 | 26 | 238 | 3.2 | 9.7 | 0.00 | 0.00 | 0.00 | 33 | 1012.6 |
| 20260504181521 | 25 | 241 | 3.2 | 14.5 | 0.00 | 0.00 | 0.00 | 32 | 1012.6 |
| 20260504181019 | 25 | 159 | 1.6 | 6.4 | 0.00 | 0.00 | 0.00 | 34 | 1012.7 |
| 20260504180518 | 25 | 33 | 1.6 | 4.8 | 0.00 | 0.00 | 0.00 | 32 | 1012.9 |
| 20260504180016 | 25 | 179 | 1.6 | 9.7 | 0.00 | 0.00 | 0.00 | 34 | 1013.0 |
| 20260504175513 | 25 | 222 | 1.6 | 6.4 | 0.00 | 0.00 | 0.00 | 32 | 1013.0 |
| 20260504175010 | 24 | 85 | 4.8 | 6.4 | 0.00 | 0.00 | 0.00 | 32 | 1012.9 |
| 20260504174508 | 23 | 189 | 1.6 | 6.4 | 0.00 | 0.00 | 0.00 | 34 | 1013.0 |
| 20260504174005 | 23 | 203 | 4.8 | 6.4 | 0.00 | 0.00 | 0.00 | 33 | 1013.2 |
| 20260504173501 | 23 | 237 | 1.6 | 4.8 | 0.00 | 0.00 | 0.00 | 32 | 1013.1 |
| 20260504172959 | 24 | 275 | 4.8 | 9.7 | 0.00 | 0.00 | 0.00 | 34 | 1013.3 |
| 20260504172454 | 23 | 163 | 1.6 | 6.4 | 0.00 | 0.00 | 0.00 | 35 | 1013.2 |
| 20260504171951 | 24 | 231 | 0.0 | 9.7 | 0.00 | 0.00 | 0.00 | 33 | 1013.4 |
| 20260504171449 | 23 | 226 | 0.0 | 4.8 | 0.00 | 0.00 | 0.00 | 35 | 1013.3 |
| 20260504170945 | 23 | 183 | 0.0 | 4.8 | 0.00 | 0.00 | 0.00 | 35 | 1013.6 |
| 20260504170441 | 23 | 177 | 8.0 | 14.5 | 0.00 | 0.00 | 0.00 | 34 | 1013.6 |
| 20260504160401 | 22 | 210 | 0.0 | 6.4 | 0.00 | 0.00 | 0.00 | 34 | 1014.3 |
| 20260504150825 | 21 | 215 | 1.6 | 9.7 | 0.00 | 0.00 | 0.00 | 34 | 1014.8 |
| 20260504150322 | 21 | 213 | 3.2 | 11.3 | 0.00 | 0.00 | 0.00 | 33 | 1014.8 |
| 20260504141252 | 19 | 236 | 3.2 | 3.2 | 0.00 | 0.00 | 0.00 | 36 | 1014.9 |
| 20260504140749 | 20 | 210 | 1.6 | 3.2 | 0.00 | 0.00 | 0.00 | 36 | 1015.0 |
| 20260504140244 | 20 | 211 | 3.2 | 4.8 | 0.00 | 0.00 | 0.00 | 37 | 1014.8 |
| 20260504130713 | 15 | 234 | 0.0 | 4.8 | 0.00 | 0.00 | 0.00 | 48 | 1015.5 |
| 20260504130209 | 15 | 220 | 3.2 | 4.8 | 0.00 | 0.00 | 0.00 | 48 | 1015.4 |
| 20260504120133 | 12 | 188 | 1.6 | 3.2 | 0.00 | 0.00 | 0.00 | 56 | 1015.7 |
| 20260504110600 | 10 | 214 | 1.6 | 1.6 | 0.00 | 0.00 | 0.00 | 61 | 1015.9 |
| 20260504100522 | 10 | 203 | 0.0 | 0.0 | 0.00 | 0.00 | 0.00 | 62 | 1015.8 |
| 20260504081915 | 10 | 183 | 1.6 | 4.8 | 0.00 | 0.00 | 0.00 | 63 | 1015.9 |
| 20260504081412 | 10 | 165 | 3.2 | 3.2 | 0.00 | 0.00 | 0.00 | 63 | 1016.1 |
| 20260504080908 | 10 | 190 | 1.6 | 3.2 | 0.00 | 0.00 | 0.00 | 63 | 1016.3 |
| 20260504080405 | 10 | 190 | 1.6 | 1.6 | 0.00 | 0.00 | 0.00 | 64 | 1016.3 |
| 20260504070333 | 10 | 209 | 0.0 | 0.0 | 0.00 | 0.00 | 0.00 | 56 | 1016.3 |
| 20260504050721 | 8 | 200 | 0.0 | 0.0 | 0.00 | 0.00 | 0.00 | 64 | 1016.6 |
| 20260504050218 | 7 | 200 | 0.0 | 0.0 | 0.00 | 0.00 | 0.00 | 65 | 1016.6 |
| 20260504045715 | 7 | 200 | 0.0 | 0.0 | 0.00 | 0.00 | 0.00 | 66 | 1016.6 |
| 20260504045215 | 7 | 200 | 0.0 | 0.0 | 0.00 | 0.00 | 0.00 | 66 | 1016.8 |
| 20260504044713 | 7 | 200 | 0.0 | 0.0 | 0.00 | 0.00 | 0.00 | 67 | 1016.6 |
| 20260504044210 | 6 | 200 | 0.0 | 0.0 | 0.00 | 0.00 | 0.00 | 67 | 1016.7 |
| 20260504043707 | 6 | 200 | 0.0 | 0.0 | 0.00 | 0.00 | 0.00 | 67 | 1016.6 |
| 20260504043204 | 6 | 200 | 0.0 | 0.0 | 0.00 | 0.00 | 0.00 | 68 | 1016.6 |
| 20260504042702 | 6 | 200 | 0.0 | 0.0 | 0.00 | 0.00 | 0.00 | 67 | 1016.5 |
| 20260504042158 | 6 | 200 | 0.0 | 0.0 | 0.00 | 0.00 | 0.00 | 66 | 1016.5 |
| 20260504041654 | 6 | 200 | 0.0 | 0.0 | 0.00 | 0.00 | 0.00 | 67 | 1016.8 |
| 20260504041150 | 6 | 200 | 0.0 | 0.0 | 0.00 | 0.00 | 0.00 | 68 | 1016.6 |
| 20260504040647 | 6 | 200 | 0.0 | 0.0 | 0.00 | 0.00 | 0.00 | 68 | 1016.6 |
| 20260504040144 | 6 | 200 | 0.0 | 0.0 | 0.00 | 0.00 | 0.00 | 68 | 1016.6 |
| 20260504035641 | 6 | 200 | 0.0 | 0.0 | 0.00 | 0.00 | 0.00 | 67 | 1016.7 |
| 20260504035137 | 6 | 200 | 0.0 | 0.0 | 0.00 | 0.00 | 0.00 | 69 | 1016.7 |
| 20260504034635 | 6 | 200 | 0.0 | 0.0 | 0.00 | 0.00 | 0.00 | 68 | 1016.6 |
| 20260504034132 | 6 | 200 | 0.0 | 0.0 | 0.00 | 0.00 | 0.00 | 68 | 1016.6 |
| 20260504033630 | 6 | 200 | 0.0 | 0.0 | 0.00 | 0.00 | 0.00 | 68 | 1016.7 |
| 20260504033127 | 6 | 200 | 0.0 | 0.0 | 0.00 | 0.00 | 0.00 | 67 | 1016.7 |
| 20260504032624 | 7 | 201 | 0.0 | 0.0 | 0.00 | 0.00 | 0.00 | 68 | 1016.6 |
| 20260504032120 | 7 | 198 | 0.0 | 0.0 | 0.00 | 0.00 | 0.00 | 68 | 1016.5 |
| 20260504031618 | 7 | 198 | 0.0 | 0.0 | 0.00 | 0.00 | 0.00 | 68 | 1016.5 |
| 20260504031113 | 7 | 198 | 0.0 | 0.0 | 0.00 | 0.00 | 0.00 | 68 | 1016.4 |
| 20260504030611 | 7 | 214 | 0.0 | 0.0 | 0.00 | 0.00 | 0.00 | 68 | 1016.4 |
| 20260504030107 | 7 | 220 | 0.0 | 0.0 | 0.00 | 0.00 | 0.00 | 67 | 1016.3 |
| 20260504025604 | 7 | 220 | 0.0 | 0.0 | 0.00 | 0.00 | 0.00 | 67 | 1016.4 |
| 20260504025101 | 7 | 215 | 0.0 | 0.0 | 0.00 | 0.00 | 0.00 | 66 | 1016.4 |
| 20260504024559 | 7 | 215 | 0.0 | 0.0 | 0.00 | 0.00 | 0.00 | 66 | 1016.2 |
| 20260504024055 | 7 | 213 | 0.0 | 0.0 | 0.00 | 0.00 | 0.00 | 65 | 1016.3 |
| 20260504023552 | 7 | 213 | 0.0 | 0.0 | 0.00 | 0.00 | 0.00 | 64 | 1016.2 |
| 20260504023048 | 7 | 213 | 0.0 | 0.0 | 0.00 | 0.00 | 0.00 | 63 | 1016.2 |
| 20260504022544 | 8 | 213 | 0.0 | 0.0 | 0.00 | 0.00 | 0.00 | 62 | 1016.2 |
| 20260504022040 | 8 | 213 | 0.0 | 0.0 | 0.00 | 0.00 | 0.00 | 62 | 1016.1 |
| 20260504021538 | 8 | 213 | 0.0 | 0.0 | 0.00 | 0.00 | 0.00 | 62 | 1016.1 |
| 20260504021034 | 8 | 213 | 0.0 | 0.0 | 0.00 | 0.00 | 0.00 | 62 | 1015.9 |
| 20260504020531 | 8 | 213 | 0.0 | 0.0 | 0.00 | 0.00 | 0.00 | 61 | 1016.1 |
| 20260504020028 | 8 | 213 | 0.0 | 0.0 | 0.00 | 0.00 | 0.00 | 60 | 1015.8 |
| 20260504015524 | 8 | 213 | 0.0 | 0.0 | 0.00 | 0.00 | 0.00 | 59 | 1015.9 |
| 20260504015020 | 9 | 213 | 0.0 | 0.0 | 0.00 | 0.00 | 0.00 | 58 | 1015.9 |
| 20260504014517 | 9 | 203 | 0.0 | 0.0 | 0.00 | 0.00 | 0.00 | 57 | 1015.8 |
| 20260504014014 | 9 | 200 | 0.0 | 0.0 | 0.00 | 0.00 | 0.00 | 55 | 1015.8 |
| 20260504013512 | 10 | 191 | 0.0 | 0.0 | 0.00 | 0.00 | 0.00 | 54 | 1015.8 |
| 20260504013009 | 10 | 195 | 0.0 | 0.0 | 0.00 | 0.00 | 0.00 | 54 | 1015.8 |
| 20260504012506 | 10 | 195 | 0.0 | 0.0 | 0.00 | 0.00 | 0.00 | 53 | 1015.7 |
| 20260504012004 | 10 | 201 | 0.0 | 0.0 | 0.00 | 0.00 | 0.00 | 52 | 1015.7 |
| 20260504011500 | 10 | 215 | 0.0 | 0.0 | 0.00 | 0.00 | 0.00 | 50 | 1015.7 |
| 20260504010955 | 10 | 215 | 0.0 | 0.0 | 0.00 | 0.00 | 0.00 | 51 | 1015.8 |
| 20260504010452 | 10 | 216 | 0.0 | 0.0 | 0.00 | 0.00 | 0.00 | 49 | 1015.6 |
| 20260504005948 | 11 | 218 | 0.0 | 0.0 | 0.00 | 0.00 | 0.00 | 46 | 1015.5 |
| 20260504005445 | 11 | 218 | 0.0 | 0.0 | 0.00 | 0.00 | 0.00 | 45 | 1015.6 |
| 20260504004942 | 11 | 218 | 0.0 | 0.0 | 0.00 | 0.00 | 0.00 | 45 | 1015.6 |
| 20260504004440 | 12 | 220 | 0.0 | 0.0 | 0.00 | 0.00 | 0.00 | 44 | 1015.4 |
| 20260504003937 | 12 | 211 | 0.0 | 0.0 | 0.00 | 0.00 | 0.00 | 42 | 1015.5 |
| 20260504003433 | 12 | 192 | 0.0 | 0.0 | 0.00 | 0.00 | 0.00 | 39 | 1015.4 |
| 20260504002930 | 13 | 182 | 0.0 | 0.0 | 0.00 | 0.00 | 0.00 | 38 | 1015.3 |
| 20260504002427 | 13 | 194 | 0.0 | 0.0 | 0.00 | 0.00 | 0.00 | 37 | 1015.3 |
| 20260504001924 | 13 | 199 | 0.0 | 0.0 | 0.00 | 0.00 | 0.00 | 36 | 1015.4 |
| 20260504001422 | 13 | 202 | 0.0 | 0.0 | 0.00 | 0.00 | 0.00 | 35 | 1015.4 |
| 20260504000918 | 13 | 200 | 0.0 | 0.0 | 0.00 | 0.00 | 0.00 | 36 | 1015.1 |
| 20260504000416 | 14 | 200 | 0.0 | 0.0 | 0.00 | 0.00 | 0.00 | 35 | 1015.1 |
| 20260503235913 | 14 | 222 | 0.0 | 0.0 | 0.00 | 0.00 | 0.00 | 35 | 1015.0 |
| 20260503235410 | 15 | 231 | 1.6 | 4.8 | 0.00 | 0.00 | 0.00 | 33 | 1015.1 |
| 20260503234908 | 15 | 233 | 0.0 | 0.0 | 0.00 | 0.00 | 0.00 | 35 | 1015.0 |
| 20260503234405 | 15 | 246 | 1.6 | 3.2 | 0.00 | 0.00 | 0.00 | 32 | 1014.9 |
| 20260503233903 | 15 | 193 | 0.0 | 3.2 | 0.00 | 0.00 | 0.00 | 34 | 1015.0 |
| 20260503233359 | 15 | 221 | 0.0 | 1.6 | 0.00 | 0.00 | 0.00 | 34 | 1015.1 |
| 20260503232855 | 15 | 184 | 1.6 | 3.2 | 0.00 | 0.00 | 0.00 | 35 | 1015.1 |
| 20260503232353 | 15 | 194 | 0.0 | 1.6 | 0.00 | 0.00 | 0.00 | 33 | 1014.9 |